Latest Weather Observations for Mt Wellington

IDT60901

Issued at 6:11 pm EST Sunday 30 August 2015 (issued every 10 minutes, with the page automatically refreshed every 10 minutes)

About weather observations | Map of Hobart area stations | Latest observations for Hobart area | Other Formats
Station Details ID: 094087 Name: MOUNT WELLINGTON Lat: -42.90 Lon: 147.24 Height: 1260.47 m
Data from the previous 72 hours. | See also: Recent months at Mt Wellington
Date/Time
EST
Tmp

°C
App
Tmp
°C
Dew
Point
°C
Rel
Hum
%
Delta-T

°C
Wind Press
QNH
hPa
Press
MSL
hPa
Rain
since
9 am
mm
Dir
 
Spd
km/h
Gust
km/h
Spd
kts
Gust
kts
30/06:00pm -1.2 -8.3 -1.6 97 0.1 SSW 26 33 14 18 - - 3.8
30/05:30pm -0.9 -6.7 -1.2 98 0.1 SSW 19 30 10 16 - - 3.8
30/05:00pm -0.6 -7.3 -0.9 98 0.1 SSW 24 33 13 18 - - 3.8
30/04:30pm -0.4 -7.8 -0.7 98 0.1 SSW 28 37 15 20 - - 3.8
30/04:00pm -0.3 -9.0 -0.6 98 0.1 SSW 35 48 19 26 - - 3.8
30/03:30pm -0.2 -8.9 -0.5 98 0.1 SSW 35 44 19 24 - - 3.8
30/03:00pm -0.2 -8.0 -0.5 98 0.1 SSW 30 35 16 19 - - 3.8
30/02:30pm -0.1 -7.8 -0.4 98 0.1 SSW 30 37 16 20 - - 3.8
30/02:00pm -0.1 -7.5 -0.4 98 0.1 SSW 28 37 15 20 - - 3.8
30/01:30pm 0.0 -2.4 -0.3 98 0.1 WSW 2 30 1 16 - - 3.8
30/01:00pm 0.0 -2.0 -0.3 98 0.1 CALM 0 2 0 1 - - 3.8
30/12:30pm -0.1 -2.1 -0.4 98 0.1 CALM 0 0 0 0 - - 3.4
30/12:00pm -0.2 -2.3 -0.5 98 0.1 CALM 0 0 0 0 - - 2.4
30/11:30am -0.3 -2.4 -0.6 98 0.1 CALM 0 0 0 0 - - 1.2
30/11:00am -0.5 -2.6 -0.9 97 0.1 CALM 0 0 0 0 - - 0.2
30/10:30am -0.5 -2.6 -0.9 97 0.1 CALM 0 9 0 5 - - 0.0
30/10:00am -0.6 -3.5 -1.0 97 0.1 SW 4 11 2 6 - - 0.0
30/09:30am -0.9 -3.1 -1.3 97 0.1 CALM 0 9 0 5 - - 0.0
30/09:00am -1.1 -3.3 -1.5 97 0.1 CALM 0 0 0 0 - - 6.8
30/08:30am -1.2 -3.4 -1.6 97 0.1 CALM 0 0 0 0 - - 6.8
30/08:00am -1.3 -3.5 -1.7 97 0.1 CALM 0 0 0 0 - - 6.8
30/07:30am -1.5 -3.7 -1.9 97 0.1 CALM 0 0 0 0 - - 6.8
30/07:00am -1.8 -4.1 -2.4 96 0.1 CALM 0 0 0 0 - - 6.8
30/06:30am -1.8 -4.1 -2.2 97 0.1 CALM 0 0 0 0 - - 6.8
30/06:00am -1.8 -4.1 -2.4 96 0.1 CALM 0 0 0 0 - - 6.8
30/05:30am -1.6 -3.9 -2.0 97 0.1 CALM 0 0 0 0 - - 6.8
30/05:00am -1.8 -4.1 -2.4 96 0.1 CALM 0 0 0 0 - - 6.8
30/04:30am -2.0 -4.3 -2.6 96 0.1 CALM 0 0 0 0 - - 6.8
30/04:00am -2.2 -4.5 -2.7 96 0.1 CALM 0 0 0 0 - - 6.8
30/03:30am -2.4 -4.8 -2.9 96 0.1 CALM 0 0 0 0 - - 6.8
30/03:00am -1.9 -4.2 -2.5 96 0.1 CALM 0 0 0 0 - - 6.8
30/02:30am -2.1 -4.4 -2.6 96 0.1 CALM 0 0 0 0 - - 6.8
30/02:00am -2.3 -4.7 -2.8 96 0.1 CALM 0 0 0 0 - - 6.8
30/01:30am -2.1 -4.4 -2.6 96 0.1 CALM 0 0 0 0 - - 6.8
30/01:00am -2.4 -4.8 -2.9 96 0.1 CALM 0 0 0 0 - - 6.8
30/12:30am -2.7 -5.1 -3.2 96 0.1 CALM 0 0 0 0 - - 6.8
30/12:00am -2.5 -4.9 -3.0 96 0.1 CALM 0 0 0 0 - - 6.8
 
Date/Time
EST
Tmp

°C
App
Tmp
°C
Dew
Point
°C
Rel
Hum
%
Delta-T

°C
Wind Press
QNH
hPa
Press
MSL
hPa
Rain
since
9 am
mm
Dir
 
Spd
km/h
Gust
km/h
Spd
kts
Gust
kts
29/11:30pm -2.5 -4.9 -3.0 96 0.1 CALM 0 0 0 0 - - 6.8
29/11:00pm -2.6 -5.0 -3.1 96 0.1 CALM 0 0 0 0 - - 6.8
29/10:30pm -2.3 -4.7 -2.8 96 0.1 CALM 0 0 0 0 - - 6.8
29/10:00pm -2.5 -4.9 -3.0 96 0.1 CALM 0 0 0 0 - - 6.8
29/09:30pm -2.3 -4.7 -2.8 96 0.1 CALM 0 0 0 0 - - 6.8
29/09:00pm -2.3 -4.7 -2.8 96 0.1 CALM 0 0 0 0 - - 6.8
29/08:30pm -2.2 -4.5 -2.7 96 0.1 CALM 0 0 0 0 - - 6.8
29/08:00pm -2.1 -4.4 -2.6 96 0.1 CALM 0 0 0 0 - - 6.8
29/07:30pm -1.8 -4.1 -2.2 97 0.1 CALM 0 0 0 0 - - 6.8
29/07:00pm -1.7 -4.0 -2.1 97 0.1 CALM 0 0 0 0 - - 6.8
29/06:30pm -1.6 -3.9 -2.0 97 0.1 CALM 0 0 0 0 - - 6.8
29/06:00pm -1.3 -3.5 -1.7 97 0.1 CALM 0 0 0 0 - - 6.8
29/05:30pm -1.2 -3.4 -1.6 97 0.1 CALM 0 0 0 0 - - 6.8
29/05:00pm -1.1 -3.3 -1.5 97 0.1 CALM 0 0 0 0 - - 6.8
29/04:30pm -1.1 -3.3 -1.5 97 0.1 CALM 0 0 0 0 - - 6.8
29/04:00pm -1.1 -3.3 -1.5 97 0.1 CALM 0 0 0 0 - - 6.8
29/03:30pm -0.9 -3.1 -1.2 98 0.1 CALM 0 0 0 0 - - 6.8
29/03:00pm -0.8 -2.9 -1.1 98 0.1 CALM 0 0 0 0 - - 6.8
29/02:30pm -0.8 -2.9 -1.1 98 0.1 CALM 0 0 0 0 - - 6.8
29/02:00pm -0.6 -2.7 -0.9 98 0.1 CALM 0 0 0 0 - - 6.6
29/01:30pm -0.6 -2.7 -0.9 98 0.1 CALM 0 15 0 8 - - 5.8
29/01:00pm -0.5 -3.9 -0.8 98 0.1 SW 7 63 4 34 - - 5.2
29/12:30pm -0.4 -4.6 -0.7 98 0.1 SW 11 63 6 34 - - 4.8
29/12:00pm -0.4 -3.8 -0.7 98 0.1 SW 7 65 4 35 - - 3.6
29/11:30am -0.4 -4.6 -0.7 98 0.1 SW 11 76 6 41 - - 2.0
29/11:00am -0.3 -2.4 -0.6 98 0.1 CALM 0 0 0 0 - - 0.6
29/10:30am -0.4 -2.5 -0.7 98 0.1 CALM 0 0 0 0 - - 0.2
29/10:00am -0.3 -2.4 -0.6 98 0.1 CALM 0 0 0 0 - - 0.2
29/09:30am -0.2 -2.3 -0.5 98 0.1 CALM 0 0 0 0 - - 0.0
29/09:00am 0.0 -2.0 -0.3 98 0.1 CALM 0 0 0 0 - - 0.0
29/08:30am 0.0 -2.0 -0.3 98 0.1 CALM 0 0 0 0 - - 0.0
29/08:00am 0.0 -2.0 -0.3 98 0.1 CALM 0 0 0 0 - - 0.0
29/07:30am 0.0 -2.0 -0.3 98 0.1 CALM 0 0 0 0 - - 0.0
29/07:00am 0.0 -2.0 -0.3 98 0.1 CALM 0 7 0 4 - - 0.0
29/06:30am 0.0 -3.4 -0.3 98 0.1 SW 7 54 4 29 - - 0.0
29/06:00am 0.0 -2.8 -0.3 98 0.1 SW 4 35 2 19 - - 0.0
29/05:30am -0.1 -2.9 -0.4 98 0.1 SW 4 30 2 16 - - 0.0
29/05:00am -0.1 -2.9 -0.4 98 0.1 SW 4 33 2 18 - - 0.0
29/04:30am -0.1 -2.1 -0.4 98 0.1 CALM 0 0 0 0 - - 0.0
29/04:00am -0.4 -2.5 -0.8 97 0.1 CALM 0 0 0 0 - - 0.0
29/03:30am -0.7 -2.8 -1.1 97 0.1 CALM 0 0 0 0 - - 0.0
29/03:00am -0.8 -3.0 -1.2 97 0.1 CALM 0 0 0 0 - - 0.0
29/02:30am -1.2 -3.4 -1.6 97 0.1 CALM 0 0 0 0 - - 0.0
29/02:00am -1.6 -3.9 -2.2 96 0.1 CALM 0 0 0 0 - - 0.0
29/01:30am -2.3 -4.7 -2.8 96 0.1 CALM 0 0 0 0 - - 0.0
29/01:00am -2.4 -4.8 -2.9 96 0.1 CALM 0 0 0 0 - - 0.0
29/12:30am -2.9 -5.4 -3.6 95 0.1 CALM 0 0 0 0 - - 0.0
29/12:00am -3.3 -5.8 -4.0 95 0.1 CALM 0 0 0 0 - - 0.0
 
Date/Time
EST
Tmp

°C
App
Tmp
°C
Dew
Point
°C
Rel
Hum
%
Delta-T

°C
Wind Press
QNH
hPa
Press
MSL
hPa
Rain
since
9 am
mm
Dir
 
Spd
km/h
Gust
km/h
Spd
kts
Gust
kts
28/11:30pm -3.2 -5.7 -3.9 95 0.1 CALM 0 0 0 0 - - 0.0
28/11:00pm -3.4 -5.9 -4.1 95 0.1 CALM 0 0 0 0 - - 0.0
28/10:30pm -3.5 -6.0 -4.2 95 0.1 CALM 0 0 0 0 - - 0.0
28/10:00pm -3.6 -6.1 -4.3 95 0.1 CALM 0 0 0 0 - - 0.0
28/09:30pm -4.1 -6.7 -4.9 94 0.1 CALM 0 0 0 0 - - 0.0
28/09:00pm -4.4 -7.0 -5.2 94 0.1 CALM 0 0 0 0 - - 0.0
28/08:30pm -4.5 -7.1 -5.3 94 0.1 CALM 0 0 0 0 - - 0.0
28/08:00pm -4.5 -7.1 -5.3 94 0.1 CALM 0 0 0 0 - - 0.0
28/07:30pm -4.7 -7.4 -5.5 94 0.1 CALM 0 0 0 0 - - 0.0
28/07:00pm -4.8 -7.5 -5.6 94 0.1 CALM 0 0 0 0 - - 0.0
28/06:30pm -4.8 -7.5 -5.6 94 0.1 CALM 0 0 0 0 - - 0.0
28/06:00pm -5.0 -7.7 -6.0 93 0.1 CALM 0 0 0 0 - - 0.0
28/05:30pm -4.8 -7.5 -5.6 94 0.1 CALM 0 0 0 0 - - 0.0
28/05:00pm -4.7 -7.4 -5.5 94 0.1 CALM 0 0 0 0 - - 0.0
28/04:30pm -4.6 -7.2 -5.4 94 0.1 CALM 0 0 0 0 - - 0.0
28/04:00pm -4.8 -7.5 -5.8 93 0.1 CALM 0 0 0 0 - - 0.0
28/03:30pm -4.3 -6.9 -5.1 94 0.1 CALM 0 0 0 0 - - 0.0
28/03:00pm -4.1 -6.7 -4.9 94 0.1 CALM 0 0 0 0 - - 0.0
28/02:30pm -4.1 -6.7 -4.9 94 0.1 CALM 0 0 0 0 - - 0.0
28/02:00pm -3.6 -6.1 -4.4 94 0.1 CALM 0 0 0 0 - - 0.0
28/01:30pm -3.8 -6.4 -4.6 94 0.1 CALM 0 0 0 0 - - 0.0
28/01:00pm -3.7 -6.2 -4.4 95 0.1 CALM 0 0 0 0 - - 0.0
28/12:30pm -3.4 -5.9 -4.1 95 0.1 CALM 0 0 0 0 - - 0.0
28/12:00pm -3.5 -6.0 -4.2 95 0.1 CALM 0 0 0 0 - - 0.0
28/11:30am -3.9 -6.5 -4.7 94 0.1 CALM 0 0 0 0 - - 0.0
28/11:00am -3.7 -6.3 -4.5 94 0.1 CALM 0 0 0 0 - - 0.0
28/10:30am -3.7 -6.3 -4.5 94 0.1 CALM 0 0 0 0 - - 0.0
28/10:00am -3.7 -6.3 -4.5 94 0.1 CALM 0 0 0 0 - - 0.0
28/09:30am -3.7 -6.2 -4.4 95 0.1 CALM 0 0 0 0 - - 0.0
28/09:00am -3.8 -6.4 -4.6 94 0.1 CALM 0 0 0 0 - - 0.2
28/08:30am -3.9 -6.5 -4.7 94 0.1 CALM 0 0 0 0 - - 0.2
28/08:00am -3.9 -6.5 -4.7 94 0.1 CALM 0 0 0 0 - - 0.2
28/07:30am -4.0 -6.6 -4.8 94 0.1 CALM 0 0 0 0 - - 0.2
28/07:00am -3.9 -6.5 -4.7 94 0.1 CALM 0 0 0 0 - - 0.2
28/06:30am -4.1 -6.7 -4.9 94 0.1 CALM 0 0 0 0 - - 0.2
28/06:00am -5.2 -7.9 -6.2 93 0.1 CALM 0 0 0 0 - - 0.2
28/05:30am -3.7 -6.2 -4.4 95 0.1 CALM 0 0 0 0 - - 0.2
28/05:00am -3.1 -5.6 -3.8 95 0.1 CALM 0 0 0 0 - - 0.2
28/04:30am -3.3 -5.8 -4.0 95 0.1 CALM 0 0 0 0 - - 0.2
28/04:00am -2.5 -4.9 -3.0 96 0.1 CALM 0 0 0 0 - - 0.2
28/03:30am -2.4 -4.8 -2.9 96 0.1 CALM 0 0 0 0 - - 0.2
28/03:00am -1.9 -4.2 -2.3 97 0.1 CALM 0 0 0 0 - - 0.2
28/02:30am -1.5 -3.7 -1.9 97 0.1 CALM 0 0 0 0 - - 0.2
28/02:00am -1.0 -3.2 -1.3 98 0.1 CALM 0 0 0 0 - - 0.2
28/01:30am -0.8 -2.9 -1.1 98 0.1 CALM 0 0 0 0 - - 0.2
28/01:00am -0.6 -2.7 -0.9 98 0.1 CALM 0 0 0 0 - - 0.2
28/12:30am -0.5 -2.6 -0.8 98 0.1 CALM 0 0 0 0 - - 0.2
28/12:00am -0.5 -2.6 -0.8 98 0.1 CALM 0 0 0 0 - - 0.2
 
Date/Time
EST
Tmp

°C
App
Tmp
°C
Dew
Point
°C
Rel
Hum
%
Delta-T

°C
Wind Press
QNH
hPa
Press
MSL
hPa
Rain
since
9 am
mm
Dir
 
Spd
km/h
Gust
km/h
Spd
kts
Gust
kts
27/11:30pm -0.8 -2.9 -1.1 98 0.1 CALM 0 0 0 0 - - 0.2
27/11:00pm -0.8 -2.9 -1.1 98 0.1 CALM 0 0 0 0 - - 0.2
27/10:30pm -1.1 -3.3 -1.4 98 0.1 CALM 0 0 0 0 - - 0.2
27/10:00pm -0.9 -3.1 -1.2 98 0.1 CALM 0 0 0 0 - - 0.2
27/09:30pm -0.4 -2.5 -0.7 98 0.1 CALM 0 0 0 0 - - 0.2
27/09:00pm -0.3 -2.4 -0.6 98 0.1 CALM 0 0 0 0 - - 0.2
27/08:30pm -0.4 -7.0 -0.7 98 0.1 SW 24 32 13 17 - - 0.2
27/08:00pm 0.1 -6.1 -0.2 98 0.1 SW 22 28 12 15 - - 0.2
27/07:30pm 0.5 -5.3 0.2 98 0.1 SW 20 24 11 13 - - 0.2
27/07:00pm 0.7 -5.0 0.4 98 0.1 SW 20 22 11 12 - - 0.0
27/06:30pm 0.7 -4.5 0.3 97 0.2 SW 17 20 9 11 - - 0.0

Latest Capital City Observations: Canberra | Sydney | Melbourne | Brisbane | Adelaide | Perth | Hobart | Darwin

Other Formats:

Comma delimited format used in spreadsheet applications
http://www.bom.gov.au/fwo/IDT60901/IDT60901.95979.axf

JavaScript Object Notation format (JSON) in row-major order
http://www.bom.gov.au/fwo/IDT60901/IDT60901.95979.json